This is the latest recevied weather packets stored in our database for station/object BARLOW-WX. If no packets are shown the sender has not sent any weather packets the latest 10 day(s).
| Time | Temp. | Humidity | Pressure | Rain* | Wind** | Luminosity | Snow |
|---|---|---|---|---|---|---|---|
| 1777502778 | 7.78° C | 89% | 985.2 hPa | 0 mm | - | - | - |
| 1777501891 | 7.78° C | 91% | 985.9 hPa | 0 mm | - | - | - |
| 1777500978 | 7.78° C | 91% | 985.9 hPa | 0.51 mm | - | - | - |
| 1777500104 | 7.78° C | 91% | 985.9 hPa | 0.51 mm | - | - | - |
| 1777499178 | 7.78° C | 91% | 985.2 hPa | 0.51 mm | - | - | - |
| 1777498295 | 7.78° C | 90% | 984.7 hPa | 0.51 mm | - | - | - |
| 1777497378 | 7.78° C | 90% | 984.7 hPa | 0.76 mm | - | - | - |
| 1777496503 | 7.78° C | 90% | 984.7 hPa | 0.76 mm | - | - | - |
| 1777495579 | 8.33° C | 92% | 985.8 hPa | 1.78 mm | - | - | - |
| 1777494693 | 8.33° C | 91% | 984.6 hPa | 1.27 mm | - | - | - |
| 1777493777 | 8.89° C | 91% | 984.6 hPa | 1.27 mm | - | - | - |
| 1777492901 | 9.44° C | 91% | 984.6 hPa | 1.27 mm | - | - | - |
| 1777491982 | 9.44° C | 90% | 983.9 hPa | 1.78 mm | - | - | - |
| 1777491096 | 9.44° C | 90% | 983.9 hPa | 1.78 mm | - | - | - |
| 1777490181 | 9.44° C | 90% | 983.9 hPa | 2.79 mm | - | - | - |
| 1777489303 | 9.44° C | 90% | 983.9 hPa | 2.79 mm | - | - | - |
| 1777488379 | 10° C | 86% | 984.5 hPa | 1.27 mm | - | - | - |
| 1777487501 | 10° C | 85% | 983.4 hPa | 1.27 mm | - | - | - |
| 1777486578 | 10° C | 85% | 983.4 hPa | 0.51 mm | - | - | - |
| 1777485708 | 10° C | 85% | 983.4 hPa | 0.51 mm | - | - | - |
| 1777484777 | 10° C | 85% | 984.6 hPa | 0.51 mm | - | - | - |
| 1777483892 | 10° C | 83% | 984.3 hPa | 0.51 mm | - | - | - |
| 1777482977 | 10° C | 83% | 984.3 hPa | 0.25 mm | - | - | - |
| 1777482102 | 10° C | 83% | 984.3 hPa | 0.25 mm | - | - | - |
| 1777481178 | 10° C | 79% | 984.8 hPa | 0 mm | - | - | - |
* Rain latest hour (hover to see other rain measurements)
** Current wind speed in m/s (hover to see current wind gust speed)